CDT,Max TemperatureF,Mean TemperatureF,Min TemperatureF,Max Dew PointF,MeanDew PointF,Min DewpointF,Max Humidity, Mean Humidity, Min Humidity, Max Sea Level PressureIn, Mean Sea Level PressureIn, Min Sea Level PressureIn, Max VisibilityMiles, Mean VisibilityMiles, Min VisibilityMiles, Max Wind SpeedMPH, Mean Wind SpeedMPH, Max Gust SpeedMPH,PrecipitationIn, CloudCover, Events, WindDirDegrees
2014-4-1,42,30,18,28,20,13,92,76,59,30.14,29.96,29.68,10,10,7,40,19,51,T,4,Snow,313
2014-4-2,45,34,23,34,28,22,100,79,58,30.17,30.09,29.98,10,8,4,24,14,28,0.03,6,Rain-Snow,52
2014-4-3,34,31,28,34,32,29,100,100,100,29.93,29.80,29.73,10,3,0,26,16,33,0.26,8,Fog-Rain-Snow,39
2014-4-4,36,30,24,30,28,25,100,88,75,30.14,29.88,29.68,10,5,0,32,20,39,0.01,6,Fog-Snow,330
2014-4-5,53,37,21,40,31,22,100,78,56,30.15,30.07,29.96,10,10,9,26,14,31,0.00,0,,186
2014-4-6,63,48,32,46,40,31,100,76,51,29.96,29.87,29.80,10,9,4,29,14,35,0.03,3,Rain-Thunderstorm,200
2014-4-7,61,49,37,46,40,36,100,74,47,29.88,29.82,29.78,10,8,2,32,11,40,0.04,4,Rain,338
2014-4-8,51,40,28,37,33,27,100,73,46,30.07,30.00,29.87,10,10,9,24,14,35,0.00,4,,329
2014-4-9,74,51,28,38,32,27,92,59,25,30.03,29.78,29.54,10,10,10,31,15,39,0.00,1,,202
2014-4-10,63,51,39,41,31,24,92,59,25,29.99,29.85,29.62,10,10,10,31,14,39,0.00,0,,321
2014-4-11,71,52,32,39,33,28,75,49,22,29.97,29.93,29.86,10,10,10,21,12,26,0.00,1,,247
2014-4-12,74,60,46,52,47,38,100,73,46,29.83,29.66,29.59,10,8,5,24,15,29,0.02,3,Rain,65
2014-4-13,47,38,29,46,35,25,100,89,78,29.95,29.80,29.70,10,5,0,35,24,44,0.06,8,Fog-Snow,3
2014-4-14,38,31,23,23,17,12,88,62,35,30.19,30.12,29.97,10,10,10,36,21,44,0.00,1,,339
2014-4-15,41,26,14,26,16,9,92,66,35,30.24,30.14,29.96,10,10,10,20,10,18,0.00,1,,315
2014-4-16,56,42,28,40,32,24,100,69,38,30.02,29.82,29.72,10,7,2,33,24,41,0.12,6,Rain-Snow,348
2014-4-17,44,34,24,31,27,22,92,75,57,30.35,30.26,30.04,10,10,9,30,14,38,0.00,5,,350
2014-4-18,62,44,25,36,31,26,100,68,35,30.35,30.27,30.09,10,7,2,30,16,36,0.00,1,,140
2014-4-19,77,60,42,50,43,33,77,56,35,30.09,30.02,29.97,10,10,9,36,18,43,0.00,4,,187
2014-4-20,77,62,46,60,53,44,93,70,46,30.02,29.95,29.88,10,9,2,23,7,28,0.30,5,Rain-Thunderstorm,137
2014-4-21,68,55,42,58,46,31,100,67,34,30.12,29.98,29.89,10,10,5,33,18,41,0.04,3,Thunderstorm,305
2014-4-22,63,48,32,40,33,28,85,58,30,30.17,30.11,30.02,10,10,10,16,9,20,T,2,Rain,16
2014-4-23,50,46,42,41,37,32,96,75,54,30.04,29.89,29.79,10,10,7,38,22,46,0.05,8,Rain-Thunderstorm,131
2014-4-24,56,46,36,48,43,36,100,83,66,29.79,29.71,29.65,10,7,3,29,13,36,0.29,5,Rain,37
2014-4-25,71,53,34,43,37,33,100,63,26,29.86,29.81,29.76,10,10,8,20,9,24,0.00,1,,299
2014-4-26,67,53,38,39,38,36,92,65,37,29.91,29.82,29.72,10,10,10,33,20,45,0.00,2,,81
2014-4-27,52,47,41,51,45,35,100,83,65,29.74,29.55,29.38,10,6,1,39,24,49,0.88,7,Rain-Thunderstorm,107
2014-4-28,50,46,42,50,45,43,100,97,93,29.54,29.44,29.40,10,4,1,35,23,44,0.21,8,Rain,84
2014-4-29,42,39,35,43,38,35,100,96,92,29.81,29.65,29.52,10,7,2,28,21,34,0.38,8,Rain-Snow,16
2014-4-30,43,39,35,40,37,35,100,95,89,29.85,29.80,29.76,10,9,4,28,19,32,0.08,8,Rain-Snow,339